Temp
83 82 81 78 78 77 76 77 77 79 80 80 81 81 80 80 79 76 74 74 72 69 68 67 65 64 64 63 63 62 61 60 56 59 64 64 62 61 61 60 62 61 60
84 82 80 78 78 77 76 77 77 77 79 80 80 79 79 80 79 77 75 74 74 69 68 68 66 69 63 62 61 60 60 61 60 59 62 60 57 60 58 59 60 62 58
84 82 81 79 79 77 77 78 78 78 77 79 79 78 78 79 79 78 74 73 73 70 68 67 66 64 62 61 60 59 60 63 61 59 60 57 57 58 56 57 56 57 60
84 83 81 81 80 79 78 78 79 78 78 78 78 78 78 79 79 77 75 73 71 69 67 66 63 62 60 60 59 58 58 58 58 57 54 53 55 59 57 55 54 54 53
85 83 82 83 81 80 79 80 80 79 79 79 78 78 78 80 82 76 74 72 69 67 64 63 62 66 67 65 59 56 57 56 55 54 52 53 53 56 56 55 53 54 53
85 84 84 82 82 82 81 80 79 79 79 78 78 78 78 83 76 70 74 73 70 66 62 61 62 66 65 66 66 66 60 56 54 52 51 55 55 56 56 54 53 53 50
82 82 80 80 80 80 81 80 80 79 78 78 78 78 78 77 72 67 72 73 70 66 63 62 65 67 62 61 65 64 64 64 61 54 51 51 54 56 56 55 53 53 52
76 81 80 80 80 80 80 79 78 78 79 78 78 78 77 78 66 66 70 71 69 67 66 64 64 62 60 60 59 58 56 57 57 59 53 53 54 58 57 55 54 53 54
77 77 80 80 80 80 79 78 78 79 78 78 79 78 77 75 63 64 70 69 66 66 66 65 65 63 63 64 60 57 54 55 60 60 60 60 60 60 60 58 53 50 47
73 75 77 81 80 79 79 79 79 79 79 78 78 78 75 75 61 61 69 71 63 64 65 65 66 65 61 62 60 58 55 54 56 55 56 58 60 60 61 58 56 50 48
72 73 76 78 80 79 79 79 78 78 78 78 77 77 77 74 66 59 62 72 65 62 66 63 66 61 58 59 60 61 58 60 59 58 56 55 59 58 58 58 58 57 53
71 72 75 77 79 80 78 78 78 77 77 76 75 75 76 74 63 58 59 60 65 64 67 66 62 57 55 57 58 58 58 61 64 60 54 53 53 53 54 57 56 58 54
70 73 73 74 74 76 76 76 76 75 74 74 75 74 74 74 68 59 58 58 61 68 70 66 59 54 55 56 58 57 58 58 61 58 53 52 53 55 54 57 58 58 56
69 70 73 73 72 73 71 73 71 69 71 71 72 72 72 74 69 64 62 62 61 65 63 62 60 59 60 60 57 57 58 58 59 59 55 55 55 54 54 58 52 56 54
69 69 70 72 74 73 70 65 69 62 62 68 68 68 68 70 69 62 62 64 64 61 58 59 60 57 62 62 61 57 58 58 64 61 59 57 55 54 53 53 52 51 53
66 67 67 69 71 72 70 64 53 52 49 47 46 53 58 51 47 50 52 53 52 54 59 57 56 56 58 62 63 60 59 61 65 63 61 59 57 54 54 54 53 51 52
64 63 65 66 68 69 71 69 66 57 48 46 45 45 44 44 44 46 47 50 50 56 60 58 57 57 58 61 66 64 60 62 63 65 62 61 59 57 57 54 54 52 50
66 58 65 66 68 68 68 68 70 67 65 62 48 48 44 43 44 45 47 53 57 61 62 60 58 59 59 60 62 67 63 62 63 65 65 63 62 60 57 55 55 53 52
64 63 63 65 65 63 65 66 68 69 68 63 63 52 50 44 45 48 53 62 61 61 63 61 60 60 62 66 64 66 69 66 64 64 63 65 64 62 60 58 58 55 54
60 59 60 63 63 61 60 60 61 64 63 60 58 56 58 58 58 60 60 61 61 60 60 60 61 61 62 63 65 66 67 67 64 64 64 66 66 65 62 61 60 58 57
58 58 58 61 60 58 57 56 56 56 59 58 57 52 46 61 60 59 59 62 62 62 62 62 63 63 63 63 64 65 64 69 69 65 64 64 67 62 63 65 63 62 59
55 55 54 55 57 55 53 52 52 52 52 52 52 52 47 55 55 55 57 58 58 60 64 63 64 64 64 64 64 64 65 69 67 65 64 66 66 64 64 64 65 63 60
53 52 51 51 52 52 52 50 48 49 48 48 48 48 48 48 49 49 49 49 50 50 52 58 63 63 64 64 64 64 63 66 67 69 66 66 67 65 66 64 67 62 62
50 49 48 48 48 49 48 47 47 45 46 46 45 45 45 45 45 45 46 46 46 46 46 47 48 50 59 60 58 57 57 57 60 60 62 68 68 64 67 65 67 65 65
49 48 47 46 46 46 47 46 46 45 45 44 44 44 44 44 44 44 44 44 44 44 44 44 44 45 46 47 48 50 43 35 53 49 59 63 67 70 68 67 66 66 64
50 48 46 45 46 45 45 45 45 46 44 45 44 44 44 44 44 44 44 44 44 43 44 43 43 42 42 42 40 37 35 38 48 42 55 59 63 66 66 67 69 67 67
MSLP
1010.22 1010.72 1011.14 1011.59 1011.92 1012.32 1012.63 1012.81 1012.88 1012.99 1013.03 1013.18 1013.23 1013.40 1013.49 1013.66 1013.97 1014.23 1014.75 1015.17 1015.60 1016.10 1016.26 1016.65 1016.89 1016.87 1017.10 1016.99 1016.98 1016.96 1017.09 1017.02 1017.43 1017.53 1017.61 1017.93 1018.02 1018.18 1018.29 1018.34 1018.40 1018.33 1018.08
1009.38 1010.01 1010.62 1011.21 1011.55 1012.07 1012.44 1012.48 1012.63 1012.77 1012.90 1013.08 1013.16 1013.24 1013.37 1013.51 1013.72 1014.11 1014.65 1015.03 1015.35 1016.04 1016.32 1016.63 1016.99 1017.16 1017.30 1017.14 1017.18 1017.53 1017.17 1016.68 1017.08 1017.73 1018.24 1018.34 1018.47 1018.57 1018.67 1018.65 1018.75 1018.80 1018.60
1008.87 1009.72 1010.21 1010.55 1011.07 1011.52 1011.99 1012.14 1012.21 1012.42 1012.71 1012.96 1013.00 1013.11 1013.21 1013.37 1013.50 1013.79 1014.26 1014.95 1015.18 1015.82 1016.27 1016.56 1016.97 1017.33 1017.73 1017.56 1017.69 1017.72 1017.34 1017.10 1017.29 1017.91 1018.39 1018.70 1018.93 1018.99 1019.15 1019.11 1019.23 1019.19 1018.96
1008.70 1009.35 1009.85 1010.08 1010.43 1010.77 1011.38 1011.74 1011.74 1011.95 1012.31 1012.60 1012.63 1012.72 1012.86 1013.06 1013.27 1013.67 1014.17 1014.82 1015.35 1015.87 1016.27 1016.65 1017.00 1017.38 1017.61 1017.83 1018.00 1017.97 1017.86 1018.15 1018.37 1018.73 1019.07 1019.41 1019.38 1019.47 1019.46 1019.64 1019.79 1019.85 1019.67
1008.13 1008.69 1009.10 1009.37 1009.66 1010.22 1010.65 1011.23 1011.34 1011.52 1011.78 1012.08 1012.30 1012.35 1012.50 1012.71 1012.97 1013.41 1013.98 1014.60 1015.31 1016.06 1016.63 1017.00 1017.21 1017.42 1017.55 1017.81 1018.01 1018.25 1018.40 1018.76 1019.08 1019.31 1019.57 1019.54 1019.63 1019.57 1019.73 1020.11 1020.39 1020.38 1020.34
1008.08 1008.30 1008.66 1008.81 1009.17 1009.65 1009.90 1010.52 1011.04 1011.03 1011.26 1011.69 1012.00 1012.11 1012.23 1012.36 1012.50 1012.99 1013.55 1014.32 1015.18 1015.92 1016.88 1017.36 1017.53 1017.71 1017.88 1018.09 1018.22 1018.37 1018.46 1018.85 1019.38 1019.70 1020.01 1019.90 1020.06 1019.94 1019.91 1020.12 1020.39 1020.43 1020.73
1008.17 1008.41 1008.54 1008.63 1008.94 1009.43 1009.52 1010.03 1010.55 1010.67 1010.85 1011.25 1011.48 1011.69 1011.90 1011.99 1012.21 1012.56 1013.19 1013.94 1014.78 1015.67 1016.54 1017.15 1017.50 1017.88 1018.02 1018.21 1018.53 1018.72 1018.89 1019.04 1019.40 1019.73 1019.90 1019.97 1020.01 1019.89 1019.86 1020.11 1020.61 1020.95 1021.36
1008.83 1008.13 1008.18 1008.28 1008.62 1009.16 1009.34 1009.66 1010.02 1010.10 1010.32 1010.76 1010.97 1011.16 1011.41 1011.60 1011.90 1012.53 1013.09 1013.73 1014.61 1015.34 1016.08 1016.66 1017.05 1017.44 1017.81 1018.27 1018.61 1018.99 1019.33 1019.45 1019.78 1020.16 1020.27 1019.98 1019.77 1019.60 1019.84 1020.07 1020.62 1021.14 1021.58
1008.91 1008.40 1008.38 1007.81 1008.25 1008.90 1008.98 1009.23 1009.48 1009.63 1009.77 1010.14 1010.28 1010.61 1010.97 1011.30 1011.60 1012.28 1012.96 1013.65 1014.58 1015.23 1015.68 1016.28 1016.79 1017.18 1017.33 1017.90 1018.50 1019.10 1019.64 1019.99 1019.90 1019.92 1019.94 1019.73 1019.51 1019.58 1019.90 1020.34 1020.84 1021.24 1021.72
1009.56 1008.99 1008.39 1007.88 1008.04 1008.46 1008.63 1008.82 1008.90 1008.94 1009.24 1009.53 1009.89 1010.06 1010.23 1010.70 1011.34 1012.08 1012.84 1013.62 1014.58 1015.26 1015.62 1016.00 1016.41 1016.89 1017.09 1017.31 1018.05 1018.67 1019.49 1019.85 1019.98 1020.06 1020.09 1019.97 1019.87 1019.96 1020.15 1020.24 1020.54 1020.95 1021.74
1010.00 1009.49 1008.73 1008.10 1007.85 1007.91 1008.21 1008.39 1008.64 1008.69 1008.93 1009.23 1009.56 1009.70 1009.94 1010.44 1011.19 1011.70 1012.44 1013.20 1014.02 1014.79 1015.27 1016.00 1016.32 1016.80 1017.17 1017.25 1017.43 1017.81 1018.49 1019.07 1019.66 1020.10 1020.18 1020.36 1020.31 1020.49 1020.42 1020.41 1020.46 1020.69 1021.04
1010.18 1009.69 1009.00 1008.49 1007.81 1007.80 1008.15 1008.25 1008.32 1008.57 1008.91 1009.15 1009.46 1009.72 1009.78 1010.32 1010.79 1011.73 1012.46 1012.87 1013.52 1014.36 1014.94 1015.34 1015.94 1016.52 1017.10 1017.52 1017.61 1017.83 1018.28 1018.72 1019.31 1020.03 1020.54 1020.83 1021.02 1021.00 1021.00 1020.88 1020.91 1020.77 1020.84
1010.41 1010.24 1009.75 1008.98 1008.47 1008.26 1008.40 1008.55 1008.63 1008.73 1009.07 1009.21 1009.55 1009.77 1010.18 1010.10 1010.73 1011.14 1011.81 1012.61 1013.10 1013.48 1014.15 1014.76 1015.56 1016.34 1016.87 1017.33 1017.68 1018.00 1018.21 1018.53 1019.07 1019.72 1020.50 1020.97 1021.16 1021.25 1021.39 1021.31 1021.22 1021.32 1021.60
1011.02 1010.58 1010.11 1009.37 1009.06 1008.98 1009.09 1009.22 1009.47 1009.80 1009.81 1010.15 1010.07 1009.83 1010.01 1010.07 1010.78 1011.56 1012.35 1012.89 1012.84 1013.43 1014.07 1014.76 1015.37 1016.30 1016.75 1017.07 1017.52 1017.97 1018.08 1018.25 1018.64 1019.19 1020.06 1020.64 1021.14 1021.40 1021.51 1021.65 1021.81 1022.03 1022.10
1011.52 1011.10 1010.40 1009.83 1009.57 1009.54 1009.76 1010.13 1010.23 1010.59 1010.60 1010.91 1010.93 1010.71 1010.79 1010.89 1011.00 1010.78 1011.39 1012.36 1012.75 1013.18 1014.36 1015.28 1016.02 1016.48 1016.64 1016.94 1017.31 1017.49 1017.59 1018.07 1018.10 1018.70 1019.69 1020.24 1020.84 1021.36 1021.77 1022.04 1022.29 1022.54 1022.64
1011.81 1011.54 1011.03 1010.50 1010.30 1009.77 1009.88 1010.51 1010.66 1010.94 1011.15 1011.34 1011.39 1011.42 1011.33 1011.76 1011.61 1011.64 1011.41 1011.71 1012.08 1012.75 1013.80 1014.58 1015.63 1016.04 1016.37 1016.33 1016.41 1016.90 1017.11 1017.37 1017.74 1018.35 1019.07 1019.51 1020.42 1021.04 1021.50 1021.83 1022.24 1022.70 1022.99
1012.29 1012.09 1011.55 1011.30 1010.97 1010.84 1010.57 1010.42 1010.83 1011.34 1011.31 1011.54 1011.73 1012.01 1012.07 1012.05 1011.74 1011.66 1011.91 1011.89 1012.10 1012.68 1013.43 1014.32 1014.35 1015.34 1015.49 1015.70 1015.67 1016.07 1016.48 1016.57 1017.07 1017.61 1018.31 1019.12 1019.68 1020.50 1020.99 1021.35 1021.86 1022.48 1023.16
1012.83 1012.66 1012.22 1012.06 1011.77 1011.47 1011.10 1011.01 1011.01 1011.05 1011.35 1011.89 1012.13 1012.36 1012.22 1011.83 1011.42 1011.05 1011.73 1012.84 1013.49 1013.30 1013.66 1014.47 1014.91 1015.40 1015.15 1015.33 1015.68 1015.58 1015.86 1016.05 1016.41 1016.96 1017.70 1018.49 1019.06 1019.81 1020.53 1020.86 1021.32 1021.74 1022.44
1013.47 1013.28 1012.84 1012.43 1012.16 1012.05 1011.92 1011.76 1011.62 1011.32 1011.59 1012.17 1012.28 1012.71 1012.58 1012.37 1011.97 1011.70 1011.97 1012.67 1013.48 1013.76 1013.83 1013.99 1014.47 1014.73 1014.40 1014.64 1015.07 1015.08 1015.11 1015.58 1015.73 1016.28 1016.99 1017.76 1018.47 1019.06 1019.78 1020.32 1020.70 1021.16 1021.72
1014.12 1013.84 1013.30 1013.07 1012.89 1012.89 1012.82 1012.79 1012.57 1012.40 1012.68 1013.17 1013.33 1013.25 1012.74 1012.67 1012.82 1012.60 1012.75 1012.94 1013.23 1013.61 1013.91 1014.13 1014.10 1014.14 1014.32 1014.65 1014.68 1014.69 1014.61 1014.77 1015.33 1015.79 1016.37 1017.03 1017.77 1018.33 1018.98 1019.69 1020.13 1020.62 1021.01
1014.51 1014.44 1013.97 1013.91 1013.85 1013.90 1013.96 1013.91 1013.87 1013.72 1013.74 1014.01 1014.06 1014.00 1013.29 1013.07 1013.21 1013.18 1013.19 1013.23 1013.31 1013.45 1013.52 1013.67 1013.74 1013.81 1014.02 1014.24 1014.24 1014.46 1014.35 1014.43 1014.84 1015.35 1015.76 1016.32 1016.92 1017.72 1018.15 1018.83 1019.32 1019.69 1020.44
1014.91 1015.29 1014.98 1014.88 1014.90 1014.84 1015.00 1015.08 1015.03 1015.03 1015.01 1015.01 1014.91 1014.70 1014.14 1013.83 1014.12 1014.08 1013.90 1013.86 1013.82 1013.51 1013.17 1013.27 1013.30 1013.47 1013.47 1013.61 1013.77 1014.05 1014.24 1014.20 1014.43 1015.04 1015.32 1015.77 1016.12 1016.42 1017.04 1017.97 1018.51 1018.89 1019.65
1015.70 1016.05 1015.98 1015.84 1015.66 1015.62 1015.72 1015.97 1015.98 1015.96 1015.98 1015.97 1016.01 1015.84 1015.50 1015.35 1015.43 1015.22 1015.13 1015.11 1015.04 1014.67 1014.07 1013.55 1013.51 1013.46 1013.13 1013.19 1013.28 1013.55 1014.12 1014.04 1013.91 1014.09 1014.74 1015.42 1015.80 1015.94 1016.32 1017.12 1017.60 1018.12 1018.71
1016.67 1016.89 1016.95 1016.89 1016.60 1016.35 1016.58 1016.92 1017.02 1016.98 1016.99 1016.90 1016.94 1016.90 1016.74 1016.67 1016.65 1016.52 1016.32 1016.09 1015.89 1015.69 1015.34 1015.05 1014.78 1014.31 1013.53 1013.45 1013.83 1014.00 1014.18 1014.28 1014.10 1014.14 1014.66 1014.96 1015.25 1015.41 1015.71 1016.33 1016.81 1017.15 1017.78
1017.16 1017.61 1017.64 1017.55 1017.42 1017.13 1017.12 1017.85 1017.68 1017.83 1017.82 1017.77 1017.82 1017.63 1017.75 1017.64 1017.41 1017.34 1017.13 1016.84 1016.65 1016.54 1016.37 1016.16 1015.95 1015.55 1015.15 1015.08 1014.95 1014.93 1014.78 1014.82 1014.15 1014.02 1014.49 1014.98 1015.06 1014.90 1015.24 1015.62 1016.02 1016.48 1016.98
1017.29 1017.55 1017.77 1017.74 1018.00 1017.57 1018.48 1018.67 1018.28 1018.34 1018.42 1018.25 1018.15 1018.04 1018.25 1018.18 1017.94 1017.75 1017.68 1017.41 1017.49 1017.57 1017.33 1017.08 1016.72 1016.37 1016.01 1015.94 1015.69 1015.32 1014.97 1014.17 1013.86 1013.79 1014.64 1015.56 1015.65 1014.86 1015.08 1015.28 1015.45 1015.79 1016.24
Wind_Speed
12 11 10 8 8 7 6 6 5 3 1 5 5 2 0 1 4 6 6 6 7 6 5 6 4 5 4 4 4 3 3 2 4 2 3 4 3 5 4 4 5 6 5
14 12 10 8 7 7 7 7 6 5 4 4 5 4 3 2 1 6 7 6 6 7 6 7 4 4 4 5 4 5 3 3 4 5 3 3 5 4 4 5 5 4 5
14 13 12 11 10 8 7 7 7 6 5 4 5 5 5 4 3 3 8 6 6 7 7 6 6 6 5 4 5 5 5 5 5 4 4 3 2 2 4 4 4 5 5
14 13 12 12 12 9 7 8 7 7 7 7 6 7 7 6 4 5 7 7 7 7 7 7 7 7 5 6 6 5 5 5 5 5 4 3 3 2 3 3 4 5 4
15 14 13 13 11 9 8 8 8 7 7 7 7 6 6 6 5 6 8 8 9 8 7 8 6 10 14 9 5 5 6 5 4 4 3 3 3 3 3 2 2 4 4
12 13 11 11 11 11 10 9 8 8 7 7 7 7 7 4 9 9 11 10 9 10 9 7 7 13 12 13 13 11 8 6 5 3 2 3 3 2 2 3 2 1 3
2 7 8 7 8 9 9 8 9 8 6 7 7 7 7 7 7 12 14 10 10 10 11 10 7 7 8 7 11 12 12 12 9 5 5 3 2 1 3 3 3 4 3
6 2 6 7 8 7 7 8 7 7 8 6 7 7 7 6 11 15 14 10 9 9 11 10 9 9 8 7 7 7 7 7 7 5 5 3 2 3 4 3 5 5 3
10 6 4 6 6 7 7 7 6 6 6 6 6 8 8 6 13 15 12 9 8 8 8 8 11 9 11 13 8 9 7 6 9 10 7 6 10 11 9 6 4 4 2
10 11 9 5 7 7 7 7 6 5 6 5 6 7 8 6 12 15 11 8 7 6 6 8 13 9 12 10 9 8 9 7 6 3 1 3 7 6 9 4 4 4 4
10 10 10 9 6 7 6 5 6 6 6 6 6 6 6 7 9 15 13 9 8 7 7 5 6 14 11 10 7 8 7 12 9 6 4 2 5 5 4 4 3 5 3
10 12 8 7 4 1 6 6 5 5 5 6 6 5 4 5 9 11 10 6 10 8 9 6 7 15 13 9 6 9 11 9 8 6 4 4 4 4 4 5 5 6 4
8 7 6 6 6 6 5 4 1 4 5 5 4 4 3 4 5 12 16 12 6 7 8 11 15 14 13 7 7 9 8 5 7 6 5 4 3 5 5 5 7 10 8
7 7 7 5 6 6 5 6 6 6 5 5 2 4 3 5 4 4 6 5 6 6 12 10 13 10 8 5 4 3 4 4 5 8 5 4 4 3 4 4 4 5 7
7 7 8 8 4 1 5 4 4 4 3 1 2 3 3 3 2 8 13 10 7 9 9 6 6 5 8 5 3 4 4 4 9 7 7 6 4 4 3 4 3 3 5
8 7 7 7 9 4 4 3 9 9 8 8 7 5 3 4 11 12 9 10 16 18 6 9 7 7 7 6 7 5 4 5 8 8 8 8 5 5 5 5 4 4 5
5 6 6 7 6 7 7 5 2 1 8 10 9 10 5 3 5 6 7 9 19 11 5 8 10 9 7 7 8 6 5 5 8 8 9 9 7 4 6 6 6 6 3
7 9 5 5 6 6 6 6 4 1 2 2 8 9 6 4 7 9 12 9 5 3 5 5 6 6 5 5 5 6 5 5 5 9 9 10 9 9 6 4 6 5 6
6 6 7 4 5 6 6 6 5 5 5 3 2 2 6 10 10 11 13 6 2 2 3 6 7 7 6 7 4 4 7 6 5 6 7 10 10 10 8 6 7 9 9
6 11 9 5 6 7 6 6 7 6 5 4 4 5 3 4 2 4 4 3 3 3 3 3 4 4 4 6 4 2 6 8 6 5 6 8 10 10 10 9 7 8 7
5 6 10 7 7 6 6 7 6 6 6 4 5 8 6 2 3 1 2 3 1 3 3 4 5 5 6 5 3 1 4 7 7 6 6 7 9 5 7 10 9 8 6
6 6 6 6 5 7 6 6 6 6 6 6 6 7 13 8 6 6 5 5 6 6 3 4 4 5 6 5 4 2 2 7 7 5 5 7 8 6 5 8 10 8 7
7 6 6 6 6 7 7 7 6 6 6 6 6 6 7 7 6 7 7 7 7 6 7 5 2 3 4 4 3 3 1 3 5 7 6 6 7 6 5 6 9 6 8
7 6 6 5 5 7 7 6 5 7 6 6 6 6 6 6 6 6 6 6 6 7 7 7 6 9 5 6 5 4 4 1 1 6 6 4 7 7 5 4 9 7 10
7 5 5 5 5 5 7 5 5 5 5 5 5 6 5 5 5 6 5 6 7 7 9 8 7 8 10 9 6 5 3 5 3 10 8 8 6 10 6 4 5 4 5
7 7 7 6 6 8 5 2 5 6 5 5 5 6 5 5 6 6 6 7 7 7 7 7 9 12 11 7 7 8 9 11 9 15 10 6 8 4 2 3 9 4 6
Wind_Direction
181 186 181 177 183 195 202 223 210 193 128 160 139 132 126 12 103 122 133 131 124 109 97 82 67 43 50 41 36 47 15 70 116 13 71 72 83 115 84 72 72 59 24
180 180 179 168 179 187 199 207 212 211 202 182 171 178 229 226 153 153 149 144 131 126 118 97 75 70 52 43 45 39 15 312 111 113 80 66 73 69 73 60 50 53 14
176 182 177 177 185 185 195 198 203 202 211 206 189 199 217 227 222 119 142 145 120 127 124 118 109 86 55 52 49 29 7 39 76 96 92 58 88 87 72 52 49 49 26
179 180 182 181 186 186 178 194 196 196 196 204 202 208 212 214 212 146 144 135 118 115 115 98 96 92 103 83 63 44 42 51 65 72 64 66 72 92 80 69 44 36 23
178 182 186 186 174 168 177 196 196 191 194 198 204 216 211 205 206 154 150 143 128 118 106 102 103 101 97 100 97 60 65 61 70 80 67 57 47 62 102 71 72 74 25
190 187 189 174 171 182 187 191 192 196 195 190 203 209 217 214 215 170 156 144 138 126 124 111 113 107 104 102 96 94 100 90 77 87 78 95 49 80 132 135 148 58 44
117 170 165 164 163 186 188 183 199 201 182 191 198 203 217 213 207 160 148 144 145 145 139 143 141 136 125 121 104 90 90 92 92 116 109 111 100 107 137 99 64 86 75
339 17 157 163 169 185 184 193 197 190 192 186 199 197 205 209 177 163 145 140 145 149 151 159 150 161 164 149 126 102 85 77 88 82 85 118 148 138 107 114 109 99 84
4 333 250 155 158 183 195 200 203 196 193 192 190 195 198 197 181 163 146 132 143 154 154 155 159 172 177 161 149 128 107 90 93 111 114 69 94 111 120 116 108 102 68
350 340 336 235 178 195 205 208 215 200 203 196 199 197 206 184 181 166 151 138 141 156 155 156 162 171 170 134 151 149 144 162 146 130 66 60 94 136 140 134 153 130 125
340 327 326 330 206 202 209 205 213 208 203 196 193 203 207 168 184 176 171 152 157 159 165 157 172 162 156 139 132 145 168 155 158 126 119 83 81 63 59 60 131 146 143
337 321 301 306 330 235 210 220 215 204 202 197 188 202 210 161 165 191 192 131 156 157 172 154 156 159 152 155 146 135 123 130 137 133 118 104 92 85 62 67 65 77 80
343 319 333 14 360 20 10 250 256 246 232 215 177 189 205 168 169 180 185 164 168 153 165 159 154 156 151 160 174 129 123 132 137 134 140 134 133 135 116 86 82 85 71
326 337 327 9 33 44 44 37 50 40 33 7 320 224 227 176 162 134 172 173 161 137 126 142 150 152 157 156 148 153 183 166 155 149 146 135 134 126 115 113 95 97 97
335 351 358 357 314 98 72 35 87 59 67 32 16 352 326 314 292 175 164 176 169 141 108 118 140 152 161 167 213 208 223 170 155 145 153 149 144 140 136 131 113 74 108
4 2 352 5 349 348 136 123 52 76 72 68 73 55 346 57 2 329 190 161 141 148 133 152 166 176 186 185 178 200 221 165 165 150 160 152 155 158 154 148 138 126 129
7 358 359 5 2 3 5 354 193 100 83 75 74 51 55 294 334 285 232 188 158 148 157 178 167 178 178 185 189 186 197 199 155 167 156 161 152 155 156 155 154 139 138
2 9 5 359 7 359 1 5 6 74 66 79 70 61 25 63 82 113 123 117 159 47 137 168 171 179 180 194 206 194 198 181 165 161 158 164 158 160 165 170 160 151 148
11 9 349 4 27 18 13 6 351 40 46 57 11 127 43 30 78 82 87 116 168 229 173 161 176 196 189 199 192 217 185 185 170 154 156 156 165 163 171 172 178 168 148
7 13 1 40 28 28 25 17 10 21 62 54 34 356 357 29 77 107 57 122 151 176 196 200 189 177 181 225 217 271 182 176 171 159 161 160 170 170 172 174 184 174 178
30 5 25 28 40 29 31 30 20 23 28 35 41 8 349 40 112 55 17 3 213 224 203 207 192 193 198 207 209 285 185 181 175 171 162 163 174 174 167 178 184 187 174
51 25 25 35 36 50 38 29 32 32 36 26 13 10 14 47 34 33 25 18 360 330 233 214 208 201 195 195 191 162 281 191 171 178 167 172 178 177 163 162 180 190 162
44 36 31 26 42 52 50 41 33 33 34 38 26 24 26 32 26 25 26 16 2 353 359 4 321 202 190 193 169 132 81 189 184 179 163 171 186 183 170 159 184 180 159
60 39 38 36 35 59 57 43 48 45 39 43 42 40 37 38 35 30 27 23 22 18 21 18 21 21 28 63 56 64 84 319 173 83 44 181 183 183 170 160 180 186 162
71 58 45 38 33 50 52 43 54 55 57 56 56 56 45 45 53 45 38 39 39 31 31 25 16 26 35 33 37 13 33 284 104 108 55 358 238 185 179 181 163 183 147
71 64 54 48 36 55 40 44 71 62 62 67 63 64 58 53 55 56 48 52 52 45 45 37 35 35 32 19 358 322 285 63 47 50 47 3 314 98 93 189 191 177 160